sat.trackr.live / text

‹ back to catalog

STARLINK-37987

NORAD 69749 · 2026-150L

PAYLOAD ACTIVE UNKNOWN

§ Identity

Operator
Country
US
Launch date
2026-07-02
Launch site
AFWTR
Launch vehicle
Mass (kg)
RCS (m²)

Purposes: comms

External: N2YO · Heavens-Above · Gunter

§ Orbital elements

Epoch: 2026-09-19T19:51:35.382240Z

Period
93.90 min
Inclination
97.2842°
Eccentricity
0.0002319
Mean motion
15.33473522 rev/d
Perigee alt
463.9 km
Apogee alt
467.0 km
Semi-major
6,843.6 km
B*
7.2717e-4
RAAN
101.7760°
Arg perigee
92.7508°
Mean anomaly
267.4001°
Rev number
1,363

§ Raw data

STARLINK-379871 69749U 26150L   26262.82749285  .00023496  00000+0  72717-3 0  99922 69749  97.2842 101.7760 0002319  92.7508 267.4001 15.33473522 13635

JSON: /api/v1/satellites/69749 · /tle

For live sub-satellite position, see the globe view (requires WebGL).

§ Visibility from observer

Set your observer location to see the next 7 days of passes ≥ 10°. The values pass through the URL so the page stays shareable.

No JS? Fill the form by hand. The geolocation button needs JavaScript.